DW8501 Madrid ES current weather conditions

sailwx.info

Wind from 227 at 1 knots gusting 7

Air temperature 30.6° C
Dewpoint 0.0° C

Last reported at 2015-May-28 17:50 UTC.
Time now 2015-May-28 18:10 UTC

Location: N 40°27' W 003°35'.
View on Google Maps.

See reports from other nearby stations

  
Tides and Currents Weather Stations Pressure Air Temp Water Temp Dewpoint Dewpoint Depression Visibility Wind Speed Wind Dir Waves Ship Positions
date/time (UTC)wind fromknots sea level pressurealtimeterstation pressurevisibilityair tempwater tempwave heightnotes
2015-May-28 17:50 227 1 gusting 7 30.6
2015-May-28 17:45 209 2 gusting 9 31.1
2015-May-28 17:40 210 6 gusting 9 31.7
2015-May-28 17:35 225 3 gusting 4 31.7
2015-May-28 17:30 214 1 gusting 6 31.1
2015-May-28 17:25 213 3 gusting 7 31.1
2015-May-28 17:20 231 5 gusting 8 31.7
2015-May-28 17:15 244 3 gusting 12 31.1
2015-May-28 17:10 253 6 gusting 12 30.0
2015-May-28 17:05 270 9 gusting 12 30.6
2015-May-28 17:00 319 2 gusting 8 30.6
2015-May-28 16:55 319 6 gusting 10 30.6
2015-May-28 16:50 281 3 gusting 14 30.0
2015-May-28 16:45 256 8 gusting 14 30.6
2015-May-28 16:40 195 6 gusting 10 31.7
2015-May-28 16:35 179 1 gusting 6 31.1
2015-May-28 16:30 014 2 gusting 6 31.7
2015-May-28 16:25 312 0 gusting 10 30.6
2015-May-28 16:20 291 3 gusting 10 30.6
2015-May-28 16:15 267 2 gusting 9 30.6
2015-May-28 16:10 205 1 gusting 9 30.0
2015-May-28 16:05 161 1 gusting 7 30.0
2015-May-28 16:00 237 1 gusting 13 30.0
2015-May-28 15:55 247 6 gusting 13 29.4
2015-May-28 15:50 232 9 gusting 13 30.0
2015-May-28 15:45 266 12 gusting 14 30.6
2015-May-28 15:40 270 3 gusting 18 30.0
2015-May-28 15:35 278 12 gusting 18 30.0
2015-May-28 15:30 297 7 gusting 13 30.0
2015-May-28 15:25 299 8 gusting 11 31.7
2015-May-28 15:20 267 0 gusting 8 31.1
2015-May-28 15:15 30.0
2015-May-28 15:10 252 5 gusting 12 30.0
2015-May-28 15:05 263 3 gusting 11 30.0
2015-May-28 15:00 269 6 gusting 9 30.6
2015-May-28 14:55 249 1 gusting 9 30.6
2015-May-28 14:50 243 1 gusting 15 29.4
2015-May-28 14:45 257 6 gusting 15 29.4
2015-May-28 14:40 265 9 gusting 13 30.0
2015-May-28 14:35 336 3 gusting 6 30.6
2015-May-28 14:30 337 2 gusting 6 30.0
2015-May-28 14:25 284 1 gusting 12 29.4
2015-May-28 14:20 279 3 gusting 13 28.9
2015-May-28 14:15 298 7 gusting 14 29.4
2015-May-28 14:10 297 2 gusting 14 29.4
2015-May-28 14:05 288 1 gusting 4 28.9
2015-May-28 14:00 255 1 gusting 14 28.9
2015-May-28 13:55 244 3 gusting 18 28.3
2015-May-28 13:50 235 13 gusting 18 28.3
2015-May-28 13:45 243 3 gusting 18 28.9
2015-May-28 13:40 287 5 gusting 18 28.3
2015-May-28 13:35 311 14 gusting 18 28.3
2015-May-28 13:30 302 6 gusting 13 28.9
2015-May-28 13:25 295 1 gusting 13 28.3
2015-May-28 13:20 309 7 gusting 13 28.3
2015-May-28 13:15 279 3 gusting 11 28.3
2015-May-28 13:10 199 6 gusting 10 28.9
2015-May-28 13:05 187 5 gusting 10 28.3
2015-May-28 13:00 225 4 gusting 13 28.3
2015-May-28 12:55 250 1 gusting 13 27.8
2015-May-28 12:50 251 6 gusting 10 27.2
2015-May-28 12:45 232 6 gusting 10 27.2
2015-May-28 12:40 216 4 gusting 10 27.8
2015-May-28 12:35 212 2 gusting 13 27.2
2015-May-28 12:30 227 4 gusting 13 26.7
2015-May-28 12:25 241 3 gusting 13 26.7
2015-May-28 12:20 235 7 gusting 13 26.7
2015-May-28 12:15 214 5 gusting 7 27.2
2015-May-28 12:10 135 0 gusting 5 26.7
2015-May-28 12:05 148 4 gusting 7 27.2
2015-May-28 12:00 198 4 gusting 9 27.2
2015-May-28 11:55 234 2 gusting 11 27.2
2015-May-28 11:50 217 4 gusting 11 27.2
2015-May-28 11:45 184 4 gusting 6 27.2
2015-May-28 11:40 208 2 gusting 6 26.7
2015-May-28 11:35 214 1 gusting 7 26.1
2015-May-28 11:30 201 4 gusting 7 26.1
2015-May-28 11:25 195 3 gusting 6 26.1
2015-May-28 11:20 202 3 gusting 6 26.1
2015-May-28 11:15 188 0 gusting 7 25.6
2015-May-28 11:10 176 6 gusting 7 26.1
2015-May-28 11:05 101 3 gusting 6 25.6
2015-May-28 11:00 082 1 gusting 8 25.0
2015-May-28 10:55 122 2 gusting 8 24.4
2015-May-28 10:50 105 3 gusting 7 25.0
2015-May-28 10:45 075 5 gusting 6 25.6
2015-May-28 10:40 208 2 gusting 4 25.6
2015-May-28 10:35 160 1 gusting 5 25.6
2015-May-28 10:30 090 1 gusting 5 25.0
2015-May-28 10:25 053 1 gusting 6 24.4
2015-May-28 10:20 093 2 gusting 6 24.4
2015-May-28 10:15 114 4 gusting 6 24.4
2015-May-28 10:10 260 1 gusting 4 24.4
2015-May-28 10:05 282 1 gusting 3 24.4
2015-May-28 10:00 089 1 gusting 4 24.4
2015-May-28 09:55 161 2 gusting 6 24.4
2015-May-28 09:50 166 3 gusting 6 23.9
2015-May-28 09:45 140 1 gusting 6 23.9
2015-May-28 09:40 110 1 gusting 6 23.3
2015-May-28 09:35 131 3 gusting 6 23.3
2015-May-28 09:30 188 1 gusting 6 22.2
2015-May-28 09:25 164 6 gusting 6 22.2
2015-May-28 09:20 101 2 gusting 7 22.2
2015-May-28 09:15 096 2 gusting 7 22.2
2015-May-28 09:10 113 6 gusting 6 22.8
2015-May-28 09:05 146 4 gusting 6 23.3
2015-May-28 09:00 147 1 gusting 3 23.3
2015-May-28 08:55 120 3 gusting 5 22.8
2015-May-28 08:50 101 2 gusting 5 22.2
2015-May-28 08:45 108 1 gusting 6 21.7
2015-May-28 08:40 105 2 gusting 6 21.1
2015-May-28 08:35 068 1 gusting 6 21.1
2015-May-28 08:30 070 4 gusting 6 20.6
2015-May-28 08:25 084 3 gusting 6 20.0
2015-May-28 08:20 080 4 gusting 7 20.0
2015-May-28 08:15 074 3 gusting 7 19.4
2015-May-28 08:10 070 2 gusting 7 19.4
2015-May-28 08:05 066 4 gusting 6 19.4
2015-May-28 08:00 063 4 gusting 6 19.4
2015-May-28 07:55 071 3 gusting 6 18.9
2015-May-28 07:50 072 4 gusting 7 18.9
2015-May-28 07:45 066 2 gusting 7 18.3
2015-May-28 07:40 076 5 gusting 7 18.3
2015-May-28 07:35 058 2 gusting 8 18.3
2015-May-28 07:30 051 6 gusting 8 17.2
2015-May-28 07:25 051 4 gusting 8 17.2
2015-May-28 07:20 045 5 gusting 9 17.2
2015-May-28 07:15 041 6 gusting 9 17.2
2015-May-28 07:10 049 5 gusting 6 17.2
2015-May-28 07:05 060 3 gusting 6 17.2
2015-May-28 07:00 051 4 gusting 6 17.2
2015-May-28 06:55 044 3 gusting 6 16.7
2015-May-28 06:50 049 3 gusting 5 17.2
2015-May-28 06:45 054 3 gusting 5 16.7
2015-May-28 06:40 048 1 gusting 5 16.7
2015-May-28 06:35 048 3 gusting 5 16.7
2015-May-28 06:30 051 3 gusting 5 16.7
2015-May-28 06:25 081 1 gusting 3 16.7
2015-May-28 06:20 096 2 gusting 3 16.7
2015-May-28 06:15 098 1 gusting 3 16.7
2015-May-28 06:10 095 1 gusting 3 16.1
2015-May-28 06:05 090 1 gusting 4 16.1
2015-May-28 06:00 101 2 gusting 4 15.6
2015-May-28 05:55 104 3 gusting 4 15.6
2015-May-28 05:50 088 3 gusting 4 15.6
2015-May-28 05:45 057 3 gusting 5 15.6
2015-May-28 05:40 044 1 gusting 5 15.6
2015-May-28 05:35 055 3 gusting 5 15.6
2015-May-28 05:30 058 3 gusting 4 15.6
2015-May-28 05:25 048 1 gusting 4 15.0
2015-May-28 05:20 046 3 gusting 3 15.0
2015-May-28 05:15 040 1 gusting 3 15.0
2015-May-28 05:10 041 1 gusting 3 14.4
2015-May-28 05:05 035 1 gusting 3 14.4
2015-May-28 05:00 037 1 gusting 4 14.4
2015-May-28 04:55 049 2 gusting 4 14.4
2015-May-28 04:50 046 3 gusting 3 14.4
2015-May-28 04:45 032 3 gusting 3 14.4
2015-May-28 04:40 033 2 gusting 3 14.4
2015-May-28 04:35 061 0 gusting 3 14.4
2015-May-28 04:30 060 1 gusting 3 14.4
2015-May-28 04:25 021 0 gusting 3 14.4
2015-May-28 04:20 346 1 gusting 3 14.4
2015-May-28 04:15 353 1 gusting 3 14.4
2015-May-28 04:10 010 2 gusting 3 14.4
2015-May-28 04:05 006 1 gusting 3 14.4
2015-May-28 04:00 351 1 gusting 3 14.4
2015-May-28 03:55 353 1 gusting 2 14.4
2015-May-28 03:50 001 1 gusting 2 14.4
2015-May-28 03:45 353 0 gusting 3 14.4
2015-May-28 03:40 342 0 gusting 3 14.4
2015-May-28 03:35 335 1 gusting 3 14.4
2015-May-28 03:30 327 1 gusting 3 14.4
2015-May-28 03:25 309 1 gusting 3 15.0
2015-May-28 03:20 15.0
2015-May-28 03:15 021 1 gusting 4 15.6
2015-May-28 03:10 037 1 gusting 4 15.6
2015-May-28 03:05 043 3 gusting 4 15.6
2015-May-28 03:00 042 3 gusting 4 15.6
2015-May-28 02:55 050 1 gusting 3 16.1
2015-May-28 02:50 047 1 gusting 4 16.1
2015-May-28 02:45 044 3 gusting 5 16.1
2015-May-28 02:40 040 2 gusting 5 16.1
2015-May-28 02:35 043 3 gusting 4 16.1
2015-May-28 02:30 044 1 gusting 4 16.1
2015-May-28 02:25 042 2 gusting 4 16.1
2015-May-28 02:20 043 1 gusting 4 16.7
2015-May-28 02:15 043 3 gusting 4 16.7
2015-May-28 02:10 045 2 gusting 4 16.7
2015-May-28 02:05 046 3 gusting 4 16.7
2015-May-28 02:00 055 3 gusting 5 16.7
2015-May-28 01:55 054 2 gusting 5 16.7
2015-May-28 01:50 052 3 gusting 6 16.7
2015-May-28 01:45 052 3 gusting 6 16.7
2015-May-28 01:40 046 4 gusting 6 17.2
2015-May-28 01:35 048 3 gusting 6 17.2
2015-May-28 01:30 047 3 gusting 5 17.2
2015-May-28 01:25 044 3 gusting 6 17.2
2015-May-28 01:20 049 3 gusting 6 17.8
2015-May-28 01:15 051 4 gusting 6 17.8
2015-May-28 01:10 048 4 gusting 6 17.8
2015-May-28 01:05 049 4 gusting 6 17.8
2015-May-28 01:00 048 5 gusting 6 17.8
2015-May-28 00:55 046 4 gusting 6 17.8
2015-May-28 00:50 047 4 gusting 6 18.3
2015-May-28 00:45 046 3 gusting 6 18.3
2015-May-28 00:40 061 5 gusting 6 18.3
2015-May-28 00:35 073 2 gusting 6 18.3
2015-May-28 00:30 067 3 gusting 6 18.3
2015-May-28 00:25 078 3 gusting 6 18.3
2015-May-28 00:20 098 2 gusting 6 18.3
2015-May-28 00:15 078 2 gusting 6 18.9
2015-May-28 00:10 050 5 gusting 6 18.9
2015-May-28 00:05 048 3 gusting 6 18.9
2015-May-28 00:00 052 3 gusting 7 18.9
2015-May-27 23:55 049 4 gusting 8 19.4
2015-May-27 23:50 046 6 gusting 9 19.4
2015-May-27 23:45 049 7 gusting 12 19.4
2015-May-27 23:40 053 8 gusting 12 19.4
2015-May-27 23:35 055 7 gusting 11 19.4
2015-May-27 23:30 052 6 gusting 11 19.4
2015-May-27 23:25 046 7 gusting 11 19.4
2015-May-27 23:20 042 6 gusting 11 20.0
2015-May-27 23:15 043 7 gusting 11 20.0
2015-May-27 23:10 047 7 gusting 11 20.0
2015-May-27 23:05 052 7 gusting 11 20.0
2015-May-27 23:00 049 6 gusting 10 20.0
2015-May-27 22:55 054 6 gusting 11 20.6
2015-May-27 22:50 056 7 gusting 13 20.6
2015-May-27 22:45 048 9 gusting 13 20.6
2015-May-27 22:40 045 11 gusting 13 20.6
2015-May-27 22:35 044 6 gusting 13 21.1
2015-May-27 22:30 046 9 gusting 13 21.1
2015-May-27 22:25 051 10 gusting 13 21.1
2015-May-27 22:20 050 9 gusting 12 21.7
2015-May-27 22:15 046 9 gusting 12 21.7
2015-May-27 22:10 045 6 gusting 10 21.7
2015-May-27 22:05 042 3 gusting 5 21.7
2015-May-27 22:00 033 3 gusting 6 21.7
2015-May-27 21:55 031 3 gusting 6 21.7
2015-May-27 21:50 028 3 gusting 6 21.7
2015-May-27 21:45 358 2 gusting 3 21.7
2015-May-27 21:40 327 1 gusting 2 21.7
2015-May-27 21:35 061 1 gusting 2 21.7
2015-May-27 21:30 22.2
2015-May-27 21:25 22.2
2015-May-27 21:20 090 2 gusting 3 22.2
2015-May-27 21:15 082 0 gusting 3 22.2
2015-May-27 21:10 102 1 gusting 4 22.8
2015-May-27 21:05 107 0 gusting 5 23.3
2015-May-27 21:00 107 3 gusting 5 23.3
2015-May-27 20:55 103 2 gusting 4 23.3
2015-May-27 20:50 088 2 gusting 3 23.3
2015-May-27 20:45 086 2 gusting 4 23.3
2015-May-27 20:40 094 1 gusting 6 23.3
2015-May-27 20:35 105 3 gusting 6 23.9
2015-May-27 20:30 102 3 gusting 6 23.9
2015-May-27 20:25 096 1 gusting 4 23.9
2015-May-27 20:20 088 1 gusting 6 23.9
2015-May-27 20:15 070 3 gusting 6 24.4
2015-May-27 20:10 069 3 gusting 6 24.4
2015-May-27 20:05 110 2 gusting 6 24.4
2015-May-27 20:00 106 3 gusting 6 25.0
2015-May-27 19:55 099 2 gusting 6 25.0
2015-May-27 19:50 092 3 gusting 6 25.0
2015-May-27 19:45 086 3 gusting 6 25.0
2015-May-27 19:40 090 5 gusting 6 25.6
2015-May-27 19:35 100 2 gusting 5 25.6
2015-May-27 19:30 102 3 gusting 5 25.6
2015-May-27 19:25 095 3 gusting 6 26.1
2015-May-27 19:20 108 2 gusting 6 26.1
2015-May-27 19:15 114 4 gusting 7 26.7
2015-May-27 19:10 111 4 gusting 9 26.7
2015-May-27 19:05 101 6 gusting 9 26.7
2015-May-27 19:00 093 6 gusting 8 27.2
2015-May-27 18:55 098 5 gusting 7 27.2
2015-May-27 18:50 109 5 gusting 7 27.2
2015-May-27 18:45 122 4 gusting 6 28.3
2015-May-27 18:40 115 0 gusting 8 27.8
2015-May-27 18:35 112 3 gusting 8 27.8
2015-May-27 18:30 108 3 gusting 7 27.8
2015-May-27 18:25 089 3 gusting 9 27.8
2015-May-27 18:20 080 3 gusting 9 27.8
2015-May-27 18:15 110 5 gusting 9 28.3
2015-May-27 18:10 101 5 gusting 7 28.3
2015-May-27 18:05 092 0 gusting 7 28.3
2015-May-27 18:00 097 4 gusting 12 28.3
2015-May-27 17:55 092 3 gusting 12 28.3
2015-May-27 17:50 051 9 gusting 10 28.3
2015-May-27 17:45 053 3 gusting 10 28.3
2015-May-27 17:40 061 6 gusting 10 28.3
2015-May-27 17:35 042 6 gusting 9 28.9
2015-May-27 17:30 054 4 gusting 9 28.9
2015-May-27 17:25 072 4 gusting 9 28.3
2015-May-27 17:20 077 3 gusting 13 28.3
2015-May-27 17:15 086 6 gusting 13 28.3
2015-May-27 17:10 097 6 gusting 13 28.9
2015-May-27 17:05 084 1 gusting 9 28.9
2015-May-27 17:00 068 3 gusting 11 28.9
2015-May-27 16:55 074 3 gusting 11 29.4
2015-May-27 16:50 043 2 gusting 6 30.0
2015-May-27 16:45 028 0 gusting 6 29.4
2015-May-27 16:40 053 3 gusting 6 29.4
2015-May-27 16:35 065 1 gusting 8 30.0
2015-May-27 16:30 062 1 gusting 8 28.9
2015-May-27 16:25 048 2 gusting 6 30.0
2015-May-27 16:20 149 0 gusting 6 30.0
2015-May-27 16:15 143 1 gusting 7 28.9
2015-May-27 16:10 097 5 gusting 10 28.3
2015-May-27 16:05 089 2 gusting 13 27.8
2015-May-27 16:00 073 8 gusting 13 27.8
2015-May-27 15:55 039 7 gusting 13 27.8
2015-May-27 15:50 042 3 gusting 14 27.8
2015-May-27 15:45 054 5 gusting 14 27.8
2015-May-27 15:40 057 12 gusting 15 28.3
2015-May-27 15:35 040 3 gusting 15 27.8
2015-May-27 15:30 057 8 gusting 13 28.9
2015-May-27 15:25 065 1 gusting 13 27.8
2015-May-27 15:20 040 9 gusting 13 27.2
2015-May-27 15:15 036 4 gusting 14 27.2
2015-May-27 15:10 050 9 gusting 14 27.8
2015-May-27 15:05 116 5 gusting 7 28.9
2015-May-27 15:00 353 1 gusting 8 27.8
2015-May-27 14:55 015 3 gusting 10 27.8
2015-May-27 14:50 070 7 gusting 10 27.8
2015-May-27 14:45 107 6 gusting 9 28.3
2015-May-27 14:40 037 2 gusting 11 28.3
2015-May-27 14:35 034 1 gusting 11 27.2
2015-May-27 14:30 042 7 gusting 14 26.7
2015-May-27 14:25 056 9 gusting 14 26.7
2015-May-27 14:20 090 5 gusting 18 27.2
2015-May-27 14:15 080 4 gusting 18 26.7
2015-May-27 14:10 058 11 gusting 18 26.7
2015-May-27 14:05 060 9 gusting 13 26.1
2015-May-27 14:00 080 9 gusting 15 26.1
2015-May-27 13:55 106 9 gusting 15 26.7
2015-May-27 13:50 091 9 gusting 15 26.7
2015-May-27 13:45 081 6 gusting 15 26.1
2015-May-27 13:40 094 13 gusting 15 26.7
2015-May-27 13:35 093 2 gusting 11 26.7
2015-May-27 13:30 097 4 gusting 13 26.1
2015-May-27 13:25 098 6 gusting 16 26.1
2015-May-27 13:20 091 8 gusting 16 25.6
2015-May-27 13:15 074 7 gusting 14 25.6
2015-May-27 13:10 082 7 gusting 15 25.6
2015-May-27 13:05 095 13 gusting 15 25.6
2015-May-27 13:00 110 4 gusting 13 25.6
2015-May-27 12:55 124 3 gusting 12 25.6
2015-May-27 12:50 129 5 gusting 19 25.6
2015-May-27 12:45 119 6 gusting 19 25.0
2015-May-27 12:40 095 10 gusting 16 24.4
2015-May-27 12:35 072 6 gusting 17 24.4
2015-May-27 12:30 084 13 gusting 17 24.4
2015-May-27 12:25 084 14 gusting 17 24.4
2015-May-27 12:20 071 10 gusting 18 24.4
2015-May-27 12:15 075 11 gusting 18 24.4
2015-May-27 12:10 042 7 gusting 13 23.9
2015-May-27 12:05 031 9 gusting 14 23.3
2015-May-27 12:00 066 9 gusting 18 23.3
2015-May-27 11:55 090 12 gusting 18 23.3
2015-May-27 11:50 082 12 gusting 20 23.3
2015-May-27 11:45 083 12 gusting 20 23.3
2015-May-27 11:40 074 13 gusting 18 23.3
2015-May-27 11:35 068 6 gusting 13 22.8
2015-May-27 11:30 058 12 gusting 13 22.8
2015-May-27 11:25 079 9 gusting 13 22.8
2015-May-27 11:20 109 4 gusting 13 22.2
2015-May-27 11:15 098 11 gusting 14 22.2
2015-May-27 11:10 083 8 gusting 14 21.7
2015-May-27 11:05 073 12 gusting 14 21.7
2015-May-27 11:00 066 8 gusting 14 21.7
2015-May-27 10:55 078 7 gusting 14 21.1
2015-May-27 10:50 075 13 gusting 14 21.7
2015-May-27 10:45 067 10 gusting 14 21.1
2015-May-27 10:40 093 6 gusting 13 21.7
2015-May-27 10:35 110 8 gusting 14 21.1
2015-May-27 10:30 105 6 gusting 14 20.6
2015-May-27 10:25 102 6 gusting 13 20.6
2015-May-27 10:20 092 6 gusting 13 20.0
2015-May-27 10:15 083 6 gusting 14 20.0
2015-May-27 10:10 059 6 gusting 14 20.0
2015-May-27 10:05 043 10 gusting 14 19.4
2015-May-27 10:00 079 10 gusting 14 19.4
2015-May-27 09:55 111 7 gusting 13 19.4
2015-May-27 09:50 103 6 gusting 13 19.4
2015-May-27 09:45 101 8 gusting 13 18.9
2015-May-27 09:40 097 8 gusting 14 18.9
2015-May-27 09:35 094 10 gusting 14 18.3
2015-May-27 09:30 083 9 gusting 13 18.3
2015-May-27 09:25 083 9 gusting 13 18.3
2015-May-27 09:20 076 9 gusting 14 17.8
2015-May-27 09:15 079 4 gusting 14 17.2
2015-May-27 09:10 088 7 gusting 13 17.2
2015-May-27 09:05 074 9 gusting 13 17.8
2015-May-27 09:00 071 6 gusting 17 17.2
2015-May-27 08:55 084 9 gusting 17 16.7
2015-May-27 08:50 090 7 gusting 16 16.7
2015-May-27 08:45 085 9 gusting 16 16.7
2015-May-27 08:40 081 10 gusting 15 16.7
2015-May-27 08:35 064 7 gusting 14 16.7
2015-May-27 08:30 064 6 gusting 14 16.7
2015-May-27 08:25 076 9 gusting 14 16.1
2015-May-27 08:20 084 9 gusting 16 16.1
2015-May-27 08:15 085 8 gusting 16 16.1
2015-May-27 08:10 090 8 gusting 14 16.1
2015-May-27 08:05 084 13 gusting 18 15.6
2015-May-27 08:00 064 13 gusting 18 15.6
2015-May-27 07:55 059 6 gusting 19 16.1
2015-May-27 07:50 074 13 gusting 19 15.6
2015-May-27 07:45 085 13 gusting 17 15.6
2015-May-27 07:40 095 10 gusting 15 15.6
2015-May-27 07:35 094 11 gusting 16 15.6
2015-May-27 07:30 086 13 gusting 18 15.6
2015-May-27 07:25 077 11 gusting 18 15.0
2015-May-27 07:20 080 13 gusting 19 15.0
2015-May-27 07:15 081 13 gusting 19 15.0
2015-May-27 07:10 059 7 gusting 17 14.4
2015-May-27 07:05 063 11 gusting 21 14.4
2015-May-27 07:00 072 13 gusting 21 14.4
2015-May-27 06:55 064 15 gusting 20 14.4
2015-May-27 06:50 066 11 gusting 22 14.4
2015-May-27 06:45 078 11 gusting 22 13.9
2015-May-27 06:40 091 13 gusting 16 13.9
2015-May-27 06:35 074 13 gusting 14 13.9
2015-May-27 06:30 055 6 gusting 14 13.9
2015-May-27 06:25 059 10 gusting 21 13.3
2015-May-27 06:20 052 8 gusting 21 13.3
2015-May-27 06:15 058 16 gusting 21 13.3
2015-May-27 06:10 058 13 gusting 18 13.3
2015-May-27 06:05 046 9 gusting 17 13.3
2015-May-27 06:00 052 9 gusting 17 12.8
2015-May-27 05:55 062 12 gusting 16 12.8
2015-May-27 05:50 070 9 gusting 18 12.8
2015-May-27 05:45 078 6 gusting 18 12.2
2015-May-27 05:40 078 10 gusting 19 12.2
2015-May-27 05:35 082 14 gusting 19 12.2
2015-May-27 05:30 081 13 gusting 19 12.8
2015-May-27 05:25 062 7 gusting 18 12.8
2015-May-27 05:20 055 9 gusting 18 12.8
2015-May-27 05:15 053 11 gusting 17 12.8
2015-May-27 05:10 056 13 gusting 20 12.8
2015-May-27 05:00 083 10 gusting 20 12.2
2015-May-27 04:55 090 12 gusting 15 12.2
2015-May-27 04:50 061 9 gusting 14 12.2
2015-May-27 04:45 057 11 gusting 14 12.2
2015-May-27 04:40 067 8 gusting 13 12.2
2015-May-27 04:35 076 6 gusting 13 12.8
2015-May-27 04:30 084 6 gusting 10 12.2
2015-May-27 04:25 090 5 gusting 11 12.2
2015-May-27 04:20 090 5 gusting 12 12.2
2015-May-27 04:15 083 7 gusting 12 12.8
2015-May-27 04:10 103 6 gusting 9 12.8
2015-May-27 04:05 116 3 gusting 9 12.8
2015-May-27 04:00 108 3 gusting 12 12.8
2015-May-27 03:55 115 7 gusting 14 12.8
2015-May-27 03:50 100 9 gusting 14 12.8
2015-May-27 03:45 074 9 gusting 14 13.3
2015-May-27 03:40 065 12 gusting 14 13.3
2015-May-27 03:35 085 3 gusting 10 13.3
2015-May-27 03:30 074 7 gusting 10 13.3
2015-May-27 03:25 055 3 gusting 12 13.3
2015-May-27 03:20 053 6 gusting 14 13.3
2015-May-27 03:15 045 9 gusting 15 13.9
2015-May-27 03:10 055 12 gusting 15 13.9
2015-May-27 03:05 077 9 gusting 15 13.3
2015-May-27 03:00 059 6 gusting 13 13.3
2015-May-27 02:55 049 9 gusting 13 13.3
2015-May-27 02:50 048 7 gusting 18 13.3
2015-May-27 02:45 046 11 gusting 18 13.9
2015-May-27 02:40 059 15 gusting 18 13.9
2015-May-27 02:35 098 11 gusting 19 13.9
2015-May-27 02:30 108 6 gusting 19 13.9
2015-May-27 02:25 090 13 gusting 17 13.9
2015-May-27 02:20 083 6 gusting 17 13.9
2015-May-27 02:15 083 5 gusting 9 13.9
2015-May-27 02:10 078 6 gusting 9 13.9
2015-May-27 02:05 067 6 gusting 8 13.9
2015-May-27 02:00 077 6 gusting 8 13.9
2015-May-27 01:55 086 2 gusting 6 13.9
2015-May-27 01:50 060 0 gusting 8 13.9
2015-May-27 01:45 049 4 gusting 8 13.9
2015-May-27 01:40 13.9
2015-May-27 01:35 065 0 gusting 4 13.9
2015-May-27 01:30 105 0 gusting 6 13.9
2015-May-27 01:25 106 1 gusting 6 14.4
2015-May-27 01:20 087 3 gusting 6 14.4
2015-May-27 01:15 084 2 gusting 6 14.4
2015-May-27 01:10 137 2 gusting 5 14.4
2015-May-27 01:05 144 0 gusting 6 14.4
2015-May-27 01:00 119 0 gusting 7 14.4
2015-May-27 00:55 108 4 gusting 7 14.4
2015-May-27 00:50 099 3 gusting 6 15.0
2015-May-27 00:45 093 4 gusting 6 15.0
2015-May-27 00:40 101 5 gusting 6 15.0
2015-May-27 00:35 122 2 gusting 6 15.6
2015-May-27 00:30 152 3 gusting 6 15.6
2015-May-27 00:25 141 3 gusting 5 15.6
2015-May-27 00:20 126 3 gusting 6 15.6
2015-May-27 00:15 116 3 gusting 6 15.6
2015-May-27 00:10 099 2 gusting 3 15.6
2015-May-27 00:05 090 2 gusting 6 15.6
2015-May-27 00:00 090 2 gusting 6 15.6
2015-May-26 23:55 096 3 gusting 8 16.1
2015-May-26 23:50 096 5 gusting 9 16.1
2015-May-26 23:45 093 6 gusting 9 16.1
2015-May-26 23:40 087 6 gusting 11 16.7
2015-May-26 23:35 078 5 gusting 12 16.7
2015-May-26 23:30 080 4 gusting 12 16.7
2015-May-26 23:25 082 6 gusting 9 16.7
2015-May-26 23:20 064 3 gusting 9 17.2
2015-May-26 23:15 048 6 gusting 9 17.2
2015-May-26 23:10 046 3 gusting 9 17.2
2015-May-26 23:05 057 6 gusting 11 17.8
2015-May-26 23:00 073 6 gusting 11 17.8
2015-May-26 22:55 079 5 gusting 9 17.8
2015-May-26 22:50 070 4 gusting 9 17.8
2015-May-26 22:45 068 3 gusting 10 18.3
2015-May-26 22:40 069 5 gusting 13 18.3
2015-May-26 22:35 059 6 gusting 13 18.3
2015-May-26 22:30 062 10 gusting 13 18.3
2015-May-26 22:25 073 6 gusting 16 18.9
2015-May-26 22:20 081 9 gusting 16 18.9
2015-May-26 22:15 080 11 gusting 14 18.9
2015-May-26 22:10 084 9 gusting 13 19.4
2015-May-26 22:05 087 10 gusting 13 19.4
2015-May-26 22:00 071 10 gusting 14 19.4
2015-May-26 21:55 070 7 gusting 14 20.0
2015-May-26 21:50 078 6 gusting 11 20.0
2015-May-26 21:45 064 6 gusting 13 20.0
2015-May-26 21:40 068 9 gusting 13 20.0
2015-May-26 21:35 067 7 gusting 10 20.0
2015-May-26 21:30 056 7 gusting 10 20.6
2015-May-26 21:25 060 6 gusting 9 20.6
2015-May-26 21:20 060 6 gusting 9 20.6
2015-May-26 21:15 043 5 gusting 15 20.6
2015-May-26 21:10 038 9 gusting 16 20.6
2015-May-26 21:05 046 13 gusting 18 20.6
2015-May-26 21:00 044 9 gusting 19 20.6
2015-May-26 20:55 036 13 gusting 19 20.6
2015-May-26 20:50 051 10 gusting 19 20.6
2015-May-26 20:45 051 16 gusting 19 21.1
2015-May-26 20:40 053 12 gusting 22 21.1
2015-May-26 20:35 058 13 gusting 22 21.1
2015-May-26 20:30 050 13 gusting 21 21.7
2015-May-26 20:25 067 18 gusting 21 21.7
2015-May-26 20:20 070 13 gusting 19 21.7
2015-May-26 20:15 113 13 gusting 18 22.2
2015-May-26 20:10 158 16 gusting 18 22.2
2015-May-26 20:05 134 13 gusting 19 22.8
2015-May-26 20:00 047 13 gusting 19 22.8
2015-May-26 19:55 037 17 gusting 18 22.8
2015-May-26 19:50 045 9 gusting 17 22.8
2015-May-26 19:45 054 14 gusting 19 23.3
2015-May-26 19:40 055 13 gusting 19 23.3
2015-May-26 19:35 047 11 gusting 19 23.3
2015-May-26 19:30 047 11 gusting 19 23.9
2015-May-26 19:25 049 15 gusting 18 23.9
2015-May-26 19:20 043 13 gusting 19 23.9
2015-May-26 19:15 040 14 gusting 19 24.4
2015-May-26 19:10 041 16 gusting 19 24.4
2015-May-26 19:05 038 13 gusting 19 25.0
2015-May-26 19:00 033 13 gusting 18 25.0
2015-May-26 18:55 033 11 gusting 18 25.0
2015-May-26 18:50 039 13 gusting 18 25.6
2015-May-26 18:45 046 14 gusting 18 25.6
2015-May-26 18:40 038 13 gusting 18 25.6
2015-May-26 18:35 030 14 gusting 19 25.6
2015-May-26 18:30 035 13 gusting 19 25.6
2015-May-26 18:25 038 13 gusting 16 26.1
2015-May-26 18:20 039 13 gusting 17 26.1
2015-May-26 18:15 044 13 gusting 17 26.1
2015-May-26 18:10 046 13 gusting 15 26.1
2015-May-26 18:05 041 14 gusting 18 26.7
2015-May-26 18:00 037 14 gusting 18 26.7